This is the latest recevied weather packets stored in our database for station/object W4ZHA. If no packets are shown the sender has not sent any weather packets the latest 10 day(s).
| Time | Temp. | Humidity | Pressure | Rain* | Wind** | Luminosity | Snow |
|---|---|---|---|---|---|---|---|
| 1787937624 | 31.11° C | 55% | 1017.9 hPa | 0 mm | - | 518 W/m² | - |
| 1787937320 | 30.56° C | 55% | 1017.9 hPa | 0 mm | - | 518 W/m² | - |
| 1787937016 | 31.67° C | 54% | 1017.9 hPa | 0 mm | - | 497 W/m² | - |
| 1787936715 | 30.56° C | 55% | 1017.9 hPa | 0 mm | - | 517 W/m² | - |
| 1787936410 | 30.56° C | 57% | 1017.9 hPa | 0 mm | - | 491 W/m² | - |
| 1787936109 | 30.56° C | 56% | 1017.9 hPa | 0 mm | - | 482 W/m² | - |
| 1787935805 | 30.56° C | 58% | 1018.3 hPa | 0 mm | - | 459 W/m² | - |
| 1787935501 | 30° C | 57% | 1017.9 hPa | 0 mm | - | 438 W/m² | - |
| 1787935197 | 29.44° C | 58% | 1018.3 hPa | 0 mm | - | 436 W/m² | - |
| 1787934892 | 30.56° C | 58% | 1018.3 hPa | 0 mm | - | 433 W/m² | - |
| 1787934591 | 30° C | 60% | 1017.9 hPa | 0 mm | - | 424 W/m² | - |
| 1787934286 | 30° C | 58% | 1018.3 hPa | 0 mm | - | 409 W/m² | - |
| 1787933985 | 30° C | 60% | 1018.3 hPa | 0 mm | - | 397 W/m² | - |
| 1787933684 | 29.44° C | 61% | 1018.3 hPa | 0 mm | - | 231 W/m² | - |
| 1787933380 | 28.89° C | 63% | 1018.3 hPa | 0 mm | - | 103 W/m² | - |
| 1787933074 | 28.89° C | 62% | 1018.3 hPa | 0 mm | - | 73 W/m² | - |
| 1787932772 | 28.33° C | 63% | 1018.6 hPa | 0 mm | - | 68 W/m² | - |
| 1787932467 | 28.33° C | 62% | 1018.3 hPa | 0 mm | - | 67 W/m² | - |
| 1787932163 | 28.33° C | 62% | 1018.3 hPa | 0 mm | - | 93 W/m² | - |
| 1787931861 | 28.33° C | 63% | 1018.3 hPa | 0 mm | - | 105 W/m² | - |
| 1787931556 | 28.33° C | 63% | 1018.3 hPa | 0 mm | - | 64 W/m² | - |
| 1787931251 | 27.78° C | 63% | 1018.3 hPa | 0 mm | - | 59 W/m² | - |
| 1787930950 | 27.78° C | 63% | 1018.6 hPa | 0 mm | - | 57 W/m² | - |
| 1787930649 | 27.78° C | 64% | 1018.3 hPa | 0 mm | - | 55 W/m² | - |
| 1787930344 | 27.78° C | 63% | 1018.3 hPa | 0 mm | - | 54 W/m² | - |
* Rain latest hour (hover to see other rain measurements)
** Current wind speed in m/s (hover to see current wind gust speed)